Tracking 18851 objects as of 25-Nov-2017
HD Live streaming from Space Station
objects crossing your sky now

OPS 8314 (2)

Track OPS 8314 (2) now!
10-day predictions
OPS 8314 (2) is classified as:


NORAD ID: 6822
Int'l Code: 1972-079C
Perigee: 1,425.1 km
Apogee: 1,472.1 km
Inclination: 95.6 °
Period: 114.7 minutes
Semi major axis: 7819 km
RCS: 0.3198 m2 (medium)
Launch date: October 10, 1972
Source: United States (US)
Launch site: AIR FORCE WESTERN TEST RANGE (AFWTR)
aabbcc
Your satellite tracking list
Your tracking list is empty




NASA's NSSDC Master Catalog

Two Line Element Set (TLE):
1 06822U 72079C   17328.89164226  .00000006  00000-0  11287-3 0  9990
2 06822  95.6379 327.2061 0030066 162.2576 261.0088 12.55522245 67623
Source of the keplerian elements: AFSPC